Temp
11 11 10 10 10 10 10 11 11 11 10 10 10 10 10 10 10 10 10 10 10 10 10 9 9 9 9 9 9 10 10 10 10 10 10 10 10 9 9 9 9 9 8 8 9 9 9 9 9 9 10 10 10 10 10 11 11 11 11 11 11 11 11 11 12 12 12 12 12
11 11 10 10 10 10 10 11 11 10 10 10 10 10 10 10 10 10 10 10 10 10 10 9 9 9 9 9 9 10 10 10 10 10 10 10 10 9 9 9 9 9 9 9 9 9 9 9 9 9 9 10 10 10 10 10 10 10 10 11 11 11 11 11 12 12 12 12 12
11 11 10 10 10 10 10 10 10 10 10 10 10 10 10 10 10 10 10 10 10 10 9 9 9 9 9 9 9 10 10 10 10 10 10 10 10 10 9 9 9 9 9 9 9 9 9 9 9 9 9 9 9 9 10 10 10 10 11 11 11 11 11 11 11 12 12 12 12
11 11 10 10 10 10 10 11 10 10 10 10 10 10 10 10 10 10 9 9 9 9 9 9 9 9 9 9 9 10 10 10 10 10 10 10 10 10 10 9 9 9 9 10 10 9 9 9 9 10 10 10 10 10 10 10 11 11 11 11 11 11 11 11 11 12 12 12 12
10 10 10 10 10 10 10 11 10 10 10 10 10 10 10 10 10 9 9 9 9 9 9 9 9 9 9 9 9 10 10 10 10 10 10 10 10 10 10 10 10 10 10 10 10 10 10 10 10 10 10 10 10 10 10 11 11 11 11 11 11 11 11 11 11 12 12 12 12
10 10 10 10 10 10 10 10 10 10 10 10 10 10 10 10 9 9 9 9 9 9 9 9 9 9 9 9 10 10 10 10 10 10 10 10 10 10 10 10 9 10 10 10 10 10 10 10 10 10 10 10 10 10 10 11 11 11 11 11 11 11 11 11 11 11 11 12 12
10 10 10 10 10 10 10 10 10 10 10 10 10 10 10 10 9 9 9 9 9 9 9 9 9 9 9 9 10 10 10 10 10 10 10 10 10 10 10 10 9 9 9 9 10 10 10 10 10 10 10 10 10 11 11 11 11 11 11 11 11 11 11 11 11 11 11 12 12
10 10 9 9 10 10 10 10 10 10 10 10 10 10 10 9 9 9 9 9 9 9 9 9 9 9 9 9 9 10 9 10 10 10 10 10 10 10 10 10 9 9 9 9 10 10 10 10 10 10 11 11 11 11 11 11 11 11 11 11 11 11 11 11 11 11 11 12 12
10 10 9 10 10 10 10 10 10 10 10 10 10 10 9 9 9 9 9 9 9 9 9 9 9 9 9 9 9 10 10 10 10 10 10 10 10 10 10 10 9 9 9 9 10 10 10 10 10 11 11 11 11 11 11 11 11 12 12 11 11 11 11 11 11 11 12 12 12
10 10 10 10 10 10 10 10 10 10 10 10 9 9 9 9 9 9 9 9 9 9 9 9 9 9 9 9 9 9 10 10 10 10 10 10 10 10 10 10 9 9 9 9 10 10 10 10 11 11 11 11 11 11 11 11 12 12 11 11 11 11 11 11 11 12 12 12 12
10 10 10 10 10 10 10 10 10 10 10 10 9 9 9 9 9 9 9 9 9 9 9 9 9 9 9 9 9 9 9 9 10 10 10 10 10 10 10 10 9 9 9 10 10 10 10 10 11 11 11 11 11 11 11 11 11 11 11 11 11 11 11 12 12 12 12 12 12
10 10 10 10 10 10 10 10 10 9 9 9 9 9 9 9 9 9 9 9 10 9 9 9 9 9 9 9 9 9 9 9 10 10 10 10 10 11 10 10 10 9 9 10 10 10 10 10 11 11 11 11 11 11 11 11 11 11 11 11 11 11 12 12 12 12 12 12 12
10 10 10 10 10 10 10 10 10 9 9 9 9 9 9 9 9 9 9 9 10 9 9 9 9 9 9 9 9 10 9 9 10 10 10 11 11 11 10 10 10 9 9 9 10 10 10 10 11 11 11 11 11 11 11 11 11 11 11 11 11 12 12 12 12 12 12 12 12
10 10 10 10 10 10 10 10 10 10 9 9 9 9 9 9 9 9 9 9 9 9 9 9 9 9 9 9 10 10 10 10 10 10 10 11 11 11 10 10 9 9 9 9 9 10 10 10 10 11 11 11 11 11 11 11 11 11 11 11 12 12 12 12 12 12 12 12 12
10 10 10 10 10 10 10 10 10 10 10 9 9 9 9 9 9 9 9 9 9 9 9 9 9 9 9 10 10 10 10 10 10 10 10 10 11 10 10 9 9 9 9 9 9 10 10 10 11 11 11 11 11 11 11 11 11 11 11 12 12 12 12 12 12 12 12 12 12
10 10 10 10 10 10 10 10 10 10 10 9 9 9 9 9 9 9 9 9 9 9 9 9 9 9 9 10 10 10 10 10 10 9 10 10 10 9 9 9 9 9 9 9 9 10 10 10 11 11 11 11 11 11 11 11 11 11 12 12 12 12 12 12 12 12 12 13 13
10 10 10 10 10 10 10 10 10 10 10 10 9 9 9 9 9 9 9 9 9 9 9 9 9 9 9 10 10 10 10 9 9 9 9 9 9 9 9 9 9 9 9 10 9 10 10 10 11 11 11 11 11 11 11 11 11 12 12 12 12 12 12 12 12 13 13 13 13
10 10 10 10 10 10 10 10 10 10 10 10 10 9 9 9 9 9 9 9 9 9 9 9 9 9 10 10 10 10 9 9 9 9 9 9 9 9 10 10 10 10 10 10 10 10 10 11 11 11 11 11 11 11 11 11 12 12 12 13 13 13 13 13 13 13 13 13 13
10 10 10 10 10 10 9 9 9 9 9 10 10 9 9 9 9 9 9 9 9 9 9 9 9 9 10 10 10 9 9 9 9 9 9 8 9 10 10 10 10 11 11 10 10 10 10 11 11 11 11 11 11 11 11 12 12 13 13 13 13 13 13 13 13 13 13 13 13
10 10 10 10 10 10 9 9 9 9 9 9 9 9 9 9 9 9 9 9 9 9 9 9 9 9 10 10 9 9 9 9 8 8 8 8 9 10 10 11 11 11 11 11 11 10 10 11 11 11 11 11 11 11 12 12 12 13 13 13 13 13 13 13 13 13 13 13 13
9 9 10 10 10 10 9 9 9 9 9 9 9 9 9 9 9 9 9 9 9 9 9 9 9 9 9 9 10 9 9 9 8 8 8 8 9 10 10 10 11 11 11 11 11 10 11 11 11 11 11 11 12 12 12 12 13 13 13 13 13 13 13 13 13 13 13 13 13
9 9 9 10 9 9 9 9 9 9 9 9 9 9 9 9 9 9 9 9 9 9 9 9 9 9 9 10 10 10 10 9 9 8 8 9 10 10 10 10 10 10 10 10 10 11 11 11 11 11 12 12 12 12 12 13 13 13 13 13 13 13 13 13 13 13 13 13 13
9 9 9 9 9 9 9 9 9 9 9 9 9 9 9 9 9 9 9 9 9 9 9 9 9 9 9 10 10 10 10 9 9 9 9 10 10 10 10 10 10 10 10 10 11 11 11 11 11 12 12 12 12 12 13 13 13 13 13 13 13 13 13 13 13 13 13 13 13
9 9 9 9 9 9 9 9 9 9 9 9 9 9 9 9 9 9 9 9 9 9 9 9 9 9 9 10 10 10 10 9 9 9 9 9 10 10 10 10 10 10 11 11 11 11 11 11 12 12 12 12 12 13 13 13 13 13 13 13 13 13 13 13 13 13 13 12 12
9 9 9 9 9 9 9 9 9 9 9 9 9 9 9 8 8 8 9 9 9 9 9 9 9 9 9 9 10 10 9 9 9 9 9 9 9 9 10 10 10 10 10 10 11 11 11 12 12 12 12 12 13 13 13 13 13 13 13 13 13 13 13 13 12 12 12 12 12
9 9 9 9 9 9 9 9 9 9 9 9 9 9 9 8 8 8 8 8 8 9 9 9 9 9 9 9 9 9 9 9 9 9 9 9 9 9 9 10 10 10 10 10 11 11 11 12 12 12 12 13 13 13 13 13 13 13 13 13 13 12 12 12 12 12 12 12 12
9 9 9 9 9 9 9 9 9 9 9 9 9 9 9 8 8 8 8 8 8 8 8 8 8 8 9 9 9 9 9 9 8 8 8 8 9 9 9 9 9 10 10 10 11 11 11 12 12 12 12 13 13 13 13 13 13 13 12 12 12 12 11 11 11 11 11 11 11
9 9 9 9 9 9 9 9 9 9 9 9 9 9 9 9 9 8 8 8 8 8 8 8 8 8 8 8 9 9 8 8 8 8 8 9 9 9 9 9 9 10 10 10 11 11 11 12 12 12 12 12 12 13 13 12 12 12 12 11 11 11 11 11 11 11 11 11 11
9 9 9 9 9 8 8 8 8 8 9 9 9 9 9 9 9 9 9 8 8 8 8 8 8 8 8 8 8 8 8 8 8 8 9 9 9 9 9 9 10 10 10 11 11 11 11 12 12 12 12 12 12 12 12 12 11 11 11 11 11 11 11 11 11 11 11 11 11
9 9 9 9 8 8 8 8 8 8 8 9 9 9 9 9 9 9 9 9 9 9 9 8 8 8 8 8 8 8 8 8 8 9 9 9 9 9 9 10 10 11 11 11 11 12 12 12 12 12 12 12 12 12 12 11 11 11 11 11 11 11 11 11 11 11 11 11 11
9 9 9 9 8 8 8 8 8 8 8 9 9 9 9 9 9 9 9 9 9 9 8 8 8 8 8 8 8 8 8 9 9 9 9 9 10 10 10 10 11 11 11 11 12 12 12 12 12 12 12 12 12 12 11 11 11 10 10 11 11 11 11 11 11 11 11 11 11
9 9 9 9 9 8 8 8 8 8 8 8 8 8 8 8 8 8 8 8 8 8 8 8 9 9 9 9 9 9 9 9 9 10 10 10 10 10 11 11 11 11 12 12 12 12 12 12 12 12 12 12 12 12 11 11 11 11 11 11 11 11 11 11 11 11 11 11 11
9 9 9 9 9 8 8 8 8 8 8 8 8 8 8 8 8 8 8 8 8 9 9 9 9 9 9 10 10 10 10 10 10 10 10 10 10 10 11 11 11 11 12 12 12 12 12 12 12 12 12 12 12 11 11 11 11 11 11 11 11 11 11 11 11 11 10 10 10
9 9 9 9 9 9 8 8 8 8 8 8 8 8 8 8 8 8 8 8 9 9 9 9 10 10 10 10 10 10 10 10 10 10 10 10 11 11 11 11 11 11 11 11 12 12 12 12 12 12 12 12 11 11 11 11 11 11 11 11 11 11 11 11 10 10 10 10 10
9 9 9 9 9 9 9 8 8 8 9 9 9 9 9 8 8 8 9 9 9 9 9 10 10 10 10 10 10 10 10 10 10 11 11 11 11 11 11 11 11 11 11 11 11 11 11 11 11 11 11 11 11 11 11 11 11 11 11 11 11 11 11 10 10 10 11 11 10
9 9 9 9 9 9 9 9 9 9 9 9 9 9 9 9 9 9 9 9 9 9 9 9 10 10 10 10 10 11 11 11 11 11 11 11 11 11 11 11 11 11 11 11 11 11 11 11 11 11 11 11 11 11 11 11 11 11 11 11 10 10 10 10 11 11 11 11 11
9 9 9 9 9 9 9 9 9 9 9 9 9 9 9 9 9 9 9 9 9 9 9 9 10 10 10 10 11 11 11 11 11 11 11 11 11 11 11 11 11 11 11 11 11 11 11 11 11 11 11 11 10 10 11 11 11 10 10 10 10 10 10 10 10 10 10 10 10
9 9 9 9 9 9 9 9 9 9 9 9 9 9 9 9 9 10 10 9 9 9 9 9 9 10 10 10 11 11 11 11 11 11 11 11 10 10 10 10 10 10 11 11 11 11 11 11 11 11 11 11 11 10 10 10 10 10 10 10 10 10 10 10 10 9 9 9 9
10 9 9 9 9 9 9 10 10 10 10 10 10 10 10 10 10 10 10 9 9 9 9 9 9 10 10 10 10 10 10 11 10 10 10 10 10 10 10 10 10 10 10 10 11 11 11 11 11 11 11 11 10 10 10 10 10 10 10 10 10 10 9 9 9 9 9 9 9
10 10 10 9 9 9 9 10 10 10 10 10 10 10 10 10 9 9 9 9 9 9 9 9 9 10 10 10 10 10 10 10 10 10 10 10 10 11 11 11 10 10 10 10 10 10 10 10 10 10 10 10 10 10 10 10 10 10 10 9 9 9 9 9 9 8 8 8 8
10 10 10 10 10 10 10 10 10 10 10 10 10 10 10 9 9 9 9 9 9 9 9 9 9 9 10 10 10 10 10 10 10 10 10 10 10 10 10 10 10 10 10 10 10 10 10 10 10 10 10 10 10 10 10 10 10 9 9 9 9 9 9 8 8 8 7 7 7
Height
1395 1396 1397 1399 1400 1400 1401 1401 1402 1402 1403 1404 1404 1404 1405 1406 1407 1409 1410 1412 1414 1415 1418 1420 1423 1425 1429 1432 1435 1438 1440 1442 1445 1447 1449 1450 1452 1455 1459 1463 1467 1471 1474 1477 1480 1482 1484 1486 1488 1490 1491 1492 1494 1495 1497 1499 1500 1502 1503 1505 1506 1508 1509 1510 1511 1512 1514 1515 1515
1394 1395 1396 1398 1399 1400 1400 1401 1401 1402 1402 1403 1404 1404 1404 1405 1406 1408 1410 1411 1413 1415 1417 1420 1423 1425 1428 1431 1435 1437 1439 1441 1444 1447 1449 1450 1452 1455 1459 1463 1466 1470 1473 1476 1479 1481 1483 1485 1487 1489 1490 1492 1494 1495 1497 1498 1500 1501 1503 1504 1506 1507 1508 1509 1510 1512 1513 1514 1515
1393 1394 1395 1397 1398 1399 1399 1400 1400 1401 1402 1403 1403 1404 1404 1405 1406 1407 1409 1410 1412 1414 1417 1419 1422 1424 1427 1430 1434 1436 1438 1440 1443 1446 1449 1451 1453 1455 1459 1462 1466 1469 1472 1475 1477 1480 1482 1484 1486 1487 1489 1491 1493 1495 1497 1498 1500 1500 1502 1503 1505 1506 1507 1508 1510 1511 1512 1513 1514
1392 1393 1395 1396 1397 1397 1398 1399 1400 1400 1401 1402 1403 1404 1404 1405 1406 1407 1409 1411 1412 1414 1416 1418 1421 1424 1427 1430 1433 1435 1438 1440 1443 1445 1448 1451 1453 1456 1459 1462 1465 1468 1470 1473 1475 1479 1481 1483 1485 1487 1488 1490 1492 1495 1496 1498 1499 1500 1501 1502 1504 1505 1506 1507 1508 1510 1511 1512 1513
1391 1392 1394 1395 1396 1397 1397 1398 1399 1400 1401 1402 1403 1404 1404 1405 1406 1408 1410 1411 1413 1414 1416 1418 1421 1424 1426 1429 1432 1435 1437 1440 1443 1445 1448 1451 1453 1456 1459 1462 1465 1468 1470 1471 1474 1477 1480 1482 1485 1486 1488 1490 1491 1494 1495 1497 1498 1499 1500 1502 1503 1505 1505 1506 1507 1509 1510 1511 1513
1390 1391 1393 1394 1395 1396 1397 1397 1398 1399 1400 1401 1402 1403 1404 1405 1406 1408 1410 1411 1413 1414 1416 1418 1420 1423 1426 1429 1432 1434 1437 1440 1442 1445 1448 1450 1453 1455 1458 1461 1464 1467 1469 1471 1473 1475 1478 1481 1483 1485 1487 1489 1491 1493 1494 1495 1496 1498 1499 1501 1502 1503 1504 1505 1506 1508 1509 1510 1512
1389 1390 1392 1393 1395 1396 1396 1397 1398 1399 1400 1401 1402 1403 1404 1405 1406 1408 1409 1411 1412 1414 1416 1418 1420 1422 1425 1429 1431 1433 1436 1439 1441 1444 1447 1450 1452 1454 1457 1460 1464 1466 1469 1470 1472 1474 1476 1479 1482 1484 1486 1489 1490 1492 1493 1494 1495 1496 1498 1500 1501 1502 1503 1504 1506 1507 1508 1509 1510
1388 1390 1391 1393 1394 1395 1395 1396 1397 1398 1400 1401 1402 1403 1404 1405 1406 1408 1409 1410 1412 1414 1416 1418 1420 1422 1425 1428 1430 1433 1435 1438 1440 1443 1446 1449 1450 1453 1456 1460 1464 1466 1468 1470 1471 1473 1475 1478 1481 1483 1485 1487 1489 1490 1491 1492 1493 1495 1497 1498 1499 1501 1502 1503 1505 1506 1507 1508 1509
1388 1389 1390 1392 1393 1394 1395 1395 1396 1397 1399 1400 1401 1403 1404 1405 1406 1407 1409 1410 1412 1414 1416 1419 1421 1423 1425 1428 1430 1432 1435 1438 1440 1443 1445 1448 1450 1452 1456 1460 1463 1466 1468 1470 1471 1472 1474 1476 1480 1483 1485 1486 1487 1489 1490 1491 1492 1494 1495 1497 1498 1499 1500 1502 1503 1504 1505 1506 1507
1387 1388 1390 1391 1392 1393 1394 1395 1395 1396 1398 1400 1401 1403 1404 1405 1406 1407 1408 1410 1412 1415 1417 1419 1421 1423 1426 1428 1430 1433 1435 1438 1440 1442 1444 1447 1450 1453 1456 1460 1463 1465 1467 1469 1470 1472 1473 1476 1480 1482 1484 1485 1486 1487 1489 1490 1491 1493 1495 1496 1497 1498 1499 1500 1501 1502 1503 1504 1505
1386 1388 1389 1390 1391 1392 1393 1394 1395 1396 1397 1400 1401 1402 1403 1404 1405 1406 1408 1410 1413 1415 1417 1419 1421 1423 1425 1428 1430 1433 1435 1438 1440 1442 1444 1446 1450 1453 1456 1459 1462 1465 1467 1469 1470 1472 1474 1476 1479 1481 1483 1484 1485 1486 1488 1490 1491 1493 1494 1495 1496 1497 1498 1499 1500 1501 1502 1503 1504
1385 1387 1388 1389 1390 1392 1393 1394 1394 1395 1396 1399 1400 1402 1403 1404 1405 1406 1408 1410 1412 1415 1417 1419 1420 1422 1425 1427 1430 1432 1435 1438 1440 1442 1445 1447 1450 1452 1455 1457 1460 1463 1466 1468 1470 1472 1474 1476 1479 1480 1482 1483 1484 1485 1487 1489 1491 1492 1493 1494 1495 1495 1496 1497 1498 1499 1500 1501 1503
1385 1386 1387 1389 1390 1391 1392 1393 1394 1395 1396 1398 1400 1401 1402 1403 1404 1406 1408 1410 1412 1414 1416 1419 1420 1422 1424 1427 1429 1432 1435 1438 1440 1443 1445 1447 1450 1451 1453 1455 1457 1460 1463 1466 1469 1471 1473 1475 1477 1480 1481 1482 1484 1485 1487 1489 1490 1490 1491 1492 1493 1494 1495 1495 1497 1498 1499 1500 1501
1385 1385 1387 1388 1389 1390 1392 1393 1394 1395 1396 1397 1399 1401 1402 1403 1404 1405 1407 1409 1411 1413 1415 1418 1420 1423 1425 1427 1430 1432 1435 1438 1440 1443 1445 1447 1449 1450 1452 1454 1456 1458 1460 1463 1466 1469 1472 1474 1477 1479 1480 1482 1483 1485 1486 1487 1488 1489 1490 1490 1491 1492 1493 1494 1495 1497 1498 1499 1500
1384 1385 1386 1388 1389 1390 1392 1393 1394 1395 1396 1397 1398 1400 1401 1402 1404 1405 1407 1409 1411 1413 1415 1418 1420 1423 1425 1428 1430 1433 1435 1438 1440 1442 1444 1446 1448 1449 1451 1453 1455 1457 1459 1461 1464 1467 1470 1473 1476 1478 1480 1481 1482 1484 1485 1485 1486 1487 1488 1489 1490 1491 1492 1493 1495 1495 1496 1497 1498
1384 1385 1386 1387 1388 1390 1391 1392 1394 1395 1396 1397 1398 1399 1400 1402 1403 1405 1407 1409 1411 1413 1415 1417 1420 1422 1425 1428 1430 1433 1436 1438 1440 1441 1443 1444 1446 1448 1450 1452 1454 1457 1459 1461 1463 1465 1469 1473 1475 1477 1478 1479 1480 1482 1483 1484 1485 1486 1487 1488 1489 1490 1491 1492 1493 1494 1495 1496 1496
1383 1384 1385 1386 1388 1389 1390 1391 1392 1394 1395 1396 1397 1398 1400 1401 1403 1405 1407 1409 1411 1413 1415 1417 1419 1422 1425 1428 1431 1433 1436 1438 1440 1441 1442 1443 1444 1446 1449 1451 1454 1457 1459 1461 1463 1466 1469 1472 1474 1475 1476 1477 1479 1480 1481 1483 1484 1485 1486 1487 1488 1490 1490 1491 1492 1493 1494 1494 1495
1382 1383 1385 1386 1387 1388 1389 1390 1391 1392 1394 1395 1396 1397 1399 1400 1402 1404 1406 1408 1410 1413 1415 1417 1419 1422 1424 1427 1430 1433 1435 1437 1439 1440 1441 1442 1444 1445 1448 1451 1454 1457 1459 1462 1464 1467 1469 1471 1472 1474 1475 1476 1478 1479 1481 1482 1483 1484 1485 1486 1487 1488 1489 1490 1490 1491 1492 1492 1493
1382 1383 1384 1385 1386 1388 1389 1390 1390 1391 1392 1394 1395 1397 1399 1400 1402 1404 1406 1409 1410 1413 1415 1416 1419 1421 1424 1427 1430 1432 1434 1436 1438 1440 1441 1442 1444 1445 1448 1451 1455 1457 1460 1462 1465 1467 1469 1470 1471 1472 1474 1475 1477 1478 1480 1481 1482 1483 1484 1485 1486 1487 1487 1488 1489 1490 1490 1491 1491
1381 1383 1384 1385 1386 1387 1388 1389 1390 1391 1392 1393 1395 1397 1399 1400 1402 1404 1406 1408 1411 1413 1415 1416 1418 1421 1424 1426 1429 1432 1434 1435 1437 1439 1440 1441 1443 1445 1448 1452 1455 1457 1460 1462 1464 1466 1467 1469 1470 1472 1473 1475 1476 1477 1479 1480 1481 1482 1483 1483 1484 1485 1486 1486 1487 1488 1489 1489 1490
1381 1382 1383 1385 1386 1387 1388 1389 1390 1391 1392 1393 1394 1396 1398 1400 1402 1404 1405 1408 1410 1413 1415 1416 1418 1420 1423 1426 1429 1431 1433 1434 1435 1437 1439 1440 1442 1445 1448 1452 1455 1457 1459 1461 1463 1465 1466 1468 1470 1471 1472 1474 1475 1476 1477 1479 1480 1480 1481 1482 1482 1483 1484 1485 1485 1486 1487 1488 1488
1381 1382 1383 1384 1385 1387 1388 1390 1390 1391 1392 1393 1394 1396 1398 1400 1402 1404 1405 1408 1410 1413 1415 1417 1418 1420 1422 1425 1428 1430 1432 1434 1434 1436 1438 1440 1442 1445 1448 1451 1454 1456 1458 1460 1462 1464 1465 1467 1469 1470 1471 1473 1474 1475 1476 1477 1478 1479 1480 1480 1481 1481 1482 1483 1484 1485 1485 1486 1486
1380 1382 1383 1384 1385 1387 1389 1390 1391 1392 1393 1394 1395 1397 1398 1400 1402 1403 1405 1408 1410 1412 1415 1417 1418 1420 1422 1425 1428 1430 1432 1433 1434 1435 1438 1440 1442 1445 1448 1451 1453 1455 1457 1459 1460 1462 1464 1466 1467 1469 1470 1471 1472 1474 1475 1476 1477 1477 1478 1478 1479 1480 1480 1481 1482 1482 1483 1484 1485
1380 1381 1383 1384 1385 1387 1389 1390 1391 1392 1394 1395 1396 1398 1399 1400 1401 1403 1405 1407 1409 1411 1414 1416 1418 1420 1422 1425 1428 1430 1432 1433 1435 1436 1438 1440 1443 1445 1448 1450 1452 1454 1456 1458 1459 1461 1463 1465 1466 1467 1469 1470 1471 1472 1473 1474 1475 1475 1476 1477 1477 1478 1479 1479 1480 1481 1481 1482 1482
1380 1381 1383 1384 1386 1387 1389 1390 1391 1392 1394 1395 1396 1398 1399 1400 1401 1403 1405 1407 1409 1411 1413 1416 1418 1420 1422 1425 1427 1430 1432 1434 1435 1437 1439 1441 1443 1445 1447 1450 1452 1454 1455 1457 1458 1460 1462 1464 1465 1466 1467 1469 1470 1471 1472 1473 1473 1474 1475 1475 1475 1476 1477 1478 1478 1479 1480 1480 1480
1381 1382 1383 1385 1386 1387 1388 1390 1391 1392 1394 1395 1396 1397 1399 1400 1401 1403 1405 1407 1409 1411 1413 1416 1418 1420 1422 1424 1427 1429 1432 1434 1436 1437 1439 1441 1443 1445 1447 1450 1452 1453 1455 1456 1457 1459 1461 1462 1464 1465 1466 1467 1469 1470 1470 1471 1472 1472 1473 1473 1474 1475 1475 1476 1477 1477 1478 1478 1478
1381 1382 1383 1385 1385 1387 1388 1389 1390 1392 1393 1394 1396 1397 1399 1400 1402 1404 1406 1408 1410 1412 1414 1416 1418 1420 1422 1424 1426 1429 1431 1434 1436 1438 1440 1441 1443 1445 1447 1450 1451 1453 1454 1455 1457 1458 1460 1461 1463 1464 1465 1466 1467 1468 1469 1470 1470 1470 1471 1472 1472 1473 1474 1474 1475 1475 1476 1476 1476
1381 1382 1383 1385 1385 1387 1388 1389 1390 1391 1393 1394 1396 1398 1400 1402 1404 1405 1407 1409 1410 1412 1414 1416 1418 1420 1422 1424 1426 1428 1431 1433 1436 1438 1440 1442 1443 1445 1447 1449 1451 1453 1454 1455 1457 1458 1459 1460 1461 1462 1464 1465 1465 1467 1467 1468 1469 1469 1470 1470 1470 1471 1471 1472 1472 1473 1473 1473 1474
1381 1382 1383 1385 1385 1386 1388 1389 1390 1391 1393 1395 1396 1398 1400 1402 1404 1406 1407 1409 1410 1412 1414 1415 1418 1420 1422 1424 1426 1429 1431 1433 1435 1437 1440 1441 1443 1445 1447 1449 1451 1453 1454 1455 1456 1457 1458 1459 1460 1460 1462 1463 1464 1465 1466 1467 1468 1468 1468 1468 1468 1469 1469 1469 1470 1470 1470 1471 1472
1381 1382 1383 1385 1385 1387 1388 1389 1390 1392 1393 1395 1397 1399 1400 1402 1404 1406 1407 1409 1410 1412 1414 1415 1418 1420 1422 1425 1427 1429 1431 1433 1435 1437 1439 1441 1443 1445 1447 1449 1451 1453 1454 1454 1455 1455 1456 1457 1458 1459 1460 1461 1462 1464 1465 1466 1466 1466 1465 1465 1466 1466 1467 1467 1467 1468 1468 1469 1469
1381 1382 1384 1385 1386 1387 1388 1389 1391 1392 1394 1395 1397 1398 1400 1402 1404 1405 1407 1409 1411 1413 1415 1417 1419 1421 1424 1425 1428 1430 1431 1433 1435 1437 1439 1441 1443 1445 1447 1449 1452 1452 1452 1451 1453 1454 1455 1455 1456 1457 1459 1460 1461 1462 1463 1464 1464 1463 1463 1464 1464 1465 1465 1465 1465 1466 1466 1466 1467
1381 1382 1384 1385 1386 1387 1389 1390 1391 1393 1394 1395 1397 1398 1400 1402 1404 1406 1408 1410 1412 1414 1416 1419 1421 1423 1425 1427 1429 1430 1432 1434 1435 1437 1439 1441 1443 1445 1446 1448 1450 1449 1449 1450 1451 1451 1452 1453 1454 1455 1457 1458 1459 1460 1461 1461 1461 1461 1461 1462 1462 1463 1463 1463 1464 1464 1464 1464 1464
1381 1382 1384 1385 1386 1387 1389 1390 1392 1393 1395 1396 1397 1399 1400 1403 1405 1407 1409 1411 1413 1416 1418 1420 1422 1424 1426 1428 1429 1431 1432 1434 1436 1437 1439 1441 1442 1443 1444 1444 1445 1446 1447 1448 1449 1449 1450 1451 1453 1454 1455 1456 1457 1458 1459 1459 1459 1459 1460 1460 1460 1461 1461 1461 1461 1461 1461 1462 1462
1381 1382 1384 1385 1386 1388 1389 1391 1392 1394 1395 1396 1398 1400 1401 1403 1405 1407 1410 1412 1414 1417 1419 1421 1423 1425 1426 1428 1429 1430 1432 1432 1433 1435 1436 1437 1438 1440 1441 1442 1444 1445 1446 1447 1447 1447 1448 1450 1451 1452 1454 1455 1455 1456 1456 1456 1457 1457 1458 1458 1459 1459 1459 1460 1460 1459 1459 1460 1460
1381 1382 1384 1385 1387 1388 1390 1391 1393 1394 1395 1397 1398 1400 1402 1404 1405 1408 1410 1412 1415 1417 1420 1421 1422 1423 1424 1425 1426 1427 1428 1429 1430 1432 1434 1435 1436 1438 1440 1441 1443 1444 1445 1445 1445 1446 1447 1449 1450 1451 1452 1453 1453 1454 1454 1454 1455 1455 1456 1456 1456 1457 1457 1457 1457 1457 1457 1457 1457
1381 1383 1384 1385 1387 1389 1390 1391 1393 1395 1396 1397 1399 1400 1402 1404 1406 1408 1410 1413 1415 1417 1419 1420 1420 1421 1422 1423 1424 1425 1427 1428 1430 1431 1433 1434 1435 1437 1438 1440 1441 1442 1443 1444 1445 1445 1446 1448 1449 1449 1450 1451 1451 1451 1451 1452 1453 1453 1454 1454 1454 1454 1455 1455 1454 1455 1455 1455 1455
1381 1383 1384 1386 1387 1389 1390 1392 1393 1395 1396 1398 1399 1401 1403 1405 1406 1409 1411 1413 1415 1417 1418 1418 1419 1420 1421 1422 1423 1425 1426 1427 1429 1430 1431 1433 1434 1435 1437 1439 1440 1441 1442 1443 1443 1444 1445 1446 1447 1448 1448 1449 1449 1449 1450 1450 1451 1451 1451 1452 1452 1451 1452 1452 1453 1453 1453 1453 1453
1382 1383 1385 1386 1387 1389 1390 1392 1393 1395 1396 1398 1400 1401 1403 1405 1407 1409 1411 1413 1415 1417 1417 1416 1417 1419 1420 1422 1423 1425 1426 1427 1428 1429 1430 1431 1433 1434 1435 1437 1438 1439 1440 1441 1442 1443 1444 1445 1445 1446 1446 1447 1447 1448 1448 1449 1449 1449 1449 1450 1450 1450 1450 1450 1450 1450 1450 1450 1450
1382 1384 1385 1386 1388 1389 1390 1392 1393 1395 1396 1398 1400 1402 1403 1405 1407 1410 1412 1414 1415 1415 1415 1415 1417 1418 1420 1421 1423 1424 1425 1426 1427 1428 1429 1430 1431 1433 1434 1435 1437 1438 1439 1440 1441 1442 1442 1443 1444 1444 1445 1445 1446 1446 1447 1447 1447 1447 1447 1447 1448 1448 1448 1448 1448 1448 1448 1448 1447
1383 1384 1385 1387 1388 1390 1391 1392 1393 1395 1397 1398 1400 1401 1403 1405 1407 1410 1411 1413 1413 1413 1413 1415 1416 1418 1419 1421 1422 1423 1424 1425 1426 1427 1428 1430 1430 1432 1434 1435 1436 1437 1438 1439 1440 1440 1441 1442 1442 1443 1444 1444 1444 1445 1445 1445 1445 1445 1445 1445 1445 1445 1445 1445 1445 1445 1445 1445 1445
1383 1384 1386 1387 1388 1390 1391 1392 1394 1395 1397 1399 1400 1402 1404 1405 1407 1408 1409 1410 1410 1412 1413 1415 1416 1417 1418 1420 1420 1421 1422 1424 1425 1426 1428 1429 1430 1431 1433 1434 1435 1436 1437 1438 1438 1439 1440 1440 1441 1441 1442 1442 1443 1443 1443 1443 1443 1443 1443 1443 1443 1443 1443 1443 1443 1443 1443 1443 1443
Wind_Speed
22 23 23 24 25 25 26 26 26 27 27 28 30 32 34 35 35 38 42 44 47 50 50 48 51 53 55 58 53 46 43 46 47 44 45 50 53 54 53 52 49 47 47 46 44 42 42 43 45 48 50 51 52 52 51 48 43 39 36 34 34 35 36 37 38 38 38 38 38
23 24 25 24 24 25 26 27 27 28 29 30 32 34 36 37 38 40 43 45 47 49 49 46 49 51 55 57 51 44 41 46 48 45 43 45 49 51 51 50 49 48 47 47 46 45 44 44 45 46 47 49 50 50 48 43 39 36 35 36 36 37 37 38 39 39 39 39 39
25 27 26 24 24 25 27 28 29 30 31 32 33 35 37 39 39 40 42 44 46 47 47 46 48 51 54 57 52 44 40 45 48 46 42 40 43 45 47 48 48 48 48 48 48 47 46 46 45 44 44 44 44 44 42 39 38 38 39 39 38 38 38 38 39 40 40 40 39
27 28 26 24 24 26 28 30 31 32 34 35 35 36 38 39 38 40 41 41 43 45 46 46 48 51 54 57 53 45 41 45 47 46 43 40 40 41 44 45 46 47 48 49 48 47 47 46 45 43 41 40 38 37 36 37 38 40 42 41 40 39 39 39 39 40 40 40 40
29 28 25 23 23 26 28 30 32 34 37 37 37 37 38 38 37 38 39 38 40 43 45 47 48 50 53 58 55 47 42 44 47 47 45 43 41 41 43 45 44 44 43 44 45 46 46 46 44 43 40 38 36 34 35 36 39 41 41 41 40 39 39 40 40 40 40 40 39
30 28 24 22 23 26 29 31 34 37 39 39 38 38 38 37 36 37 38 39 41 43 45 47 48 50 53 55 56 49 43 42 45 48 47 45 43 43 44 46 46 44 41 39 41 43 45 45 44 42 40 37 36 36 37 38 39 40 39 38 37 38 38 40 40 41 40 40 40
30 27 24 22 23 27 31 33 35 39 41 40 40 39 38 36 35 36 38 41 43 44 45 47 48 50 51 52 56 52 44 40 43 46 47 45 43 43 44 47 48 47 44 41 39 41 43 44 43 41 40 38 38 38 40 40 41 39 37 35 34 35 36 38 39 40 41 41 41
30 26 22 21 24 28 32 34 37 41 42 42 41 41 39 35 33 33 37 41 44 46 47 48 49 50 50 53 56 53 46 41 40 43 45 43 42 42 44 47 48 47 44 41 40 41 42 43 42 41 40 40 40 41 42 42 42 39 36 33 32 32 34 35 37 39 41 42 42
29 23 20 21 24 29 33 36 39 42 44 43 43 42 39 35 31 31 35 40 45 48 49 50 52 51 51 52 55 53 48 42 40 41 42 42 40 40 42 45 46 45 43 41 40 40 41 42 41 40 40 41 42 43 43 43 42 39 36 33 31 31 32 33 36 38 41 43 43
26 21 20 22 26 31 35 38 41 44 45 45 44 43 40 35 31 31 34 39 44 48 50 52 54 53 52 51 54 53 48 43 40 39 40 40 39 39 41 43 45 44 43 41 40 40 39 39 40 40 41 43 44 44 45 44 42 38 34 31 30 30 31 33 36 39 41 42 42
23 21 22 25 29 34 38 40 42 45 47 46 45 43 40 36 33 32 34 37 42 46 50 52 54 55 53 52 53 52 49 44 40 38 37 38 39 40 42 43 45 46 45 44 43 41 40 39 40 41 43 44 45 45 45 44 40 36 32 30 30 30 32 34 36 39 41 42 41
23 23 24 27 31 35 39 40 42 45 47 47 46 44 41 37 35 34 34 36 40 45 49 52 54 55 55 53 52 52 49 45 42 40 38 39 40 42 45 47 48 48 48 47 46 44 42 41 42 43 44 45 45 45 44 41 38 34 32 30 30 32 33 34 36 38 40 40 40
24 25 27 29 32 35 38 39 40 43 47 47 47 45 43 39 37 36 35 37 40 44 48 50 52 54 54 53 52 51 49 46 44 42 41 41 43 45 47 49 51 51 51 51 50 48 46 45 45 45 45 44 44 43 41 38 35 33 32 31 32 33 35 36 37 38 38 39 39
25 27 28 29 31 33 36 38 38 41 44 47 48 47 45 40 38 36 36 36 39 42 45 48 50 51 51 50 50 49 47 45 44 44 45 46 47 46 46 47 49 51 54 55 54 52 50 48 46 44 42 41 40 39 38 36 34 33 32 32 34 35 36 37 37 37 37 38 38
26 26 27 27 28 30 34 38 38 39 41 45 48 49 47 42 38 35 35 35 37 40 43 45 47 48 48 47 47 46 45 43 44 45 47 49 48 45 42 40 41 43 47 51 54 55 53 49 45 41 38 37 36 36 35 34 33 33 33 33 35 36 36 37 36 36 36 37 37
26 26 26 25 26 29 33 38 39 39 39 43 47 50 49 44 38 35 33 34 35 38 40 43 44 45 45 45 45 44 43 41 42 45 47 47 45 41 36 34 33 33 35 39 45 51 52 47 42 38 36 35 34 34 33 33 33 33 33 33 34 35 35 35 35 35 35 35 35
27 27 27 26 28 30 33 37 39 39 40 42 45 49 51 47 40 35 33 33 34 36 38 40 42 43 43 42 43 43 41 39 40 42 43 42 39 36 32 29 28 28 28 29 35 42 45 43 39 36 35 34 34 33 33 33 32 32 31 31 31 32 32 33 33 33 33 33 33
27 28 28 28 29 31 34 36 38 39 41 42 44 48 51 50 44 38 34 33 34 35 37 39 41 41 41 40 42 41 39 38 38 39 39 38 35 31 29 27 26 26 26 27 31 36 40 40 38 37 36 35 34 34 33 32 31 30 29 29 29 29 30 30 30 30 31 31 32
25 26 26 27 28 31 34 36 37 39 41 43 43 44 47 49 46 41 36 34 34 35 36 38 40 39 38 38 40 40 38 36 34 35 36 35 33 30 28 27 26 26 27 29 32 36 38 39 39 38 37 36 35 34 32 31 30 29 28 28 28 28 29 29 29 29 30 31 31
21 22 23 24 27 31 34 35 36 37 40 43 44 43 43 45 46 43 38 34 34 35 36 37 38 37 36 35 37 38 37 33 29 29 30 32 32 31 30 29 28 28 29 32 35 37 39 39 39 38 37 36 35 33 32 31 31 30 30 29 29 29 30 30 30 30 31 31 31
18 19 21 23 26 30 33 34 34 36 38 41 43 43 43 43 43 42 39 35 34 34 35 36 37 36 35 34 35 37 36 33 28 26 27 31 33 34 34 33 31 31 32 34 36 37 38 38 38 37 36 35 34 33 33 32 32 32 32 32 32 32 32 32 32 32 32 32 32
18 20 21 24 27 30 32 32 33 34 36 39 41 41 41 41 41 41 39 36 34 34 34 35 35 35 36 35 35 36 37 35 32 30 31 34 36 37 37 36 34 33 33 34 35 36 37 36 36 36 35 34 34 33 33 33 34 34 34 34 34 34 34 34 34 34 34 34 33
20 22 23 25 27 29 30 30 31 33 35 36 37 37 37 38 39 40 39 37 35 34 34 33 33 35 37 38 37 37 37 37 36 35 36 37 38 39 39 38 36 34 33 34 35 35 35 35 35 35 35 35 35 34 34 34 35 35 36 36 36 36 36 36 36 35 35 35 35
22 23 25 26 27 28 29 29 30 32 33 34 34 34 34 34 36 38 38 38 37 36 34 33 33 34 36 37 36 36 36 36 36 37 37 38 38 38 38 38 36 33 32 32 33 33 33 33 34 35 36 36 35 35 35 35 35 36 36 37 37 37 37 37 37 36 36 36 36
22 23 25 25 26 28 29 29 30 31 33 33 33 33 34 34 36 36 37 37 36 35 34 33 33 33 34 34 34 34 34 33 33 34 34 35 35 35 36 36 34 31 29 29 30 30 31 32 33 34 35 35 35 35 34 34 35 35 36 37 37 38 37 37 37 37 36 36 36
21 23 24 25 26 28 29 30 30 32 33 34 34 34 34 34 34 34 33 33 33 32 32 31 31 31 32 32 32 31 31 30 30 30 30 31 32 33 34 34 31 28 27 28 29 29 30 30 31 32 32 32 33 33 33 33 34 35 36 36 37 37 36 36 36 35 36 36 36
20 23 25 26 27 29 30 30 31 32 33 34 33 33 32 31 30 29 28 28 28 27 27 27 27 27 28 28 28 28 28 27 27 27 28 29 30 31 32 32 29 27 27 28 29 29 29 28 28 28 29 29 30 31 32 32 33 34 35 35 34 34 34 33 34 34 34 34 35
20 23 25 27 27 28 29 30 30 31 32 32 31 30 28 26 24 23 23 23 24 24 23 23 23 23 23 23 24 25 26 26 26 27 27 27 28 29 30 29 28 27 28 29 29 29 28 27 27 28 28 29 29 30 31 32 32 32 32 31 31 31 32 32 32 32 33 33 34
20 23 26 27 27 27 28 28 29 30 30 30 29 27 25 24 23 22 22 22 22 23 23 22 21 20 20 21 22 23 24 25 26 26 26 27 27 28 28 29 28 29 30 30 30 29 29 29 29 30 30 30 31 31 32 32 31 30 30 30 31 31 32 32 32 33 33 33 33
20 23 26 26 26 26 27 27 28 29 29 29 27 26 25 25 24 23 23 22 22 22 22 22 21 20 21 21 22 23 23 24 25 25 26 26 27 28 28 28 28 29 30 31 31 31 31 32 32 32 33 33 32 32 32 31 30 29 30 31 32 32 32 33 33 34 34 34 34
19 22 25 26 26 26 27 28 28 29 29 28 27 26 26 25 24 23 23 22 21 21 21 20 20 21 21 21 22 22 23 24 24 25 26 26 27 27 28 28 27 28 30 31 32 32 33 34 35 35 35 34 33 32 31 31 31 31 31 32 33 33 33 34 34 35 35 35 35
17 20 24 26 27 27 28 28 29 29 29 28 27 26 25 24 23 22 22 21 21 20 20 20 20 20 21 21 22 22 23 24 24 24 25 25 25 26 27 28 28 29 30 30 31 33 34 35 36 36 35 34 33 32 32 32 33 33 33 34 34 34 34 35 35 36 36 36 36
14 17 22 26 27 28 29 29 29 29 28 28 27 26 25 23 22 22 22 22 21 21 21 20 20 19 20 20 21 22 23 24 26 26 26 26 27 27 29 31 32 31 31 30 31 32 34 35 35 35 34 33 32 32 32 33 34 34 35 35 35 36 36 36 36 36 37 37 37
12 14 18 23 26 28 29 30 30 29 28 28 27 27 26 24 23 23 23 23 23 23 22 20 18 17 18 19 21 22 24 26 28 30 30 30 30 31 32 32 33 33 33 32 33 33 34 34 34 33 32 32 31 31 32 33 33 34 34 35 36 36 36 37 37 37 38 38 39
11 12 15 19 23 26 29 30 31 30 29 28 27 27 27 26 26 25 25 25 24 24 22 19 16 16 16 17 20 22 24 26 27 29 30 31 32 33 33 34 33 33 33 34 34 34 34 34 33 33 32 32 31 31 32 32 33 33 34 35 35 36 36 36 37 38 38 39 40
13 13 13 15 18 21 24 27 29 30 29 28 27 26 27 27 27 27 27 26 26 24 21 18 18 17 16 16 17 19 20 22 23 25 27 29 31 32 33 34 33 32 33 33 34 35 35 34 34 34 33 32 31 31 31 32 32 32 32 32 32 33 34 35 36 37 38 39 40
14 14 14 14 14 16 18 21 24 26 27 27 27 26 27 27 28 28 28 28 26 24 20 19 20 19 18 18 17 17 18 19 20 21 23 25 27 29 30 31 31 31 31 32 33 34 34 34 34 34 32 31 30 30 30 30 30 30 30 30 30 32 33 34 35 36 38 39 40
16 17 16 15 14 14 14 16 18 21 23 23 24 25 26 26 27 28 28 28 26 21 19 20 21 21 20 19 18 18 19 19 20 21 21 22 23 25 26 26 27 28 29 30 31 32 32 32 33 32 32 31 30 29 28 28 28 28 28 29 30 32 33 34 35 36 37 38 38
17 19 19 18 16 15 14 14 15 16 17 18 19 21 22 24 25 27 27 27 24 21 20 22 22 22 22 20 19 19 19 20 21 21 22 22 23 23 24 24 25 26 27 28 28 29 30 30 30 30 30 30 30 29 28 28 28 28 29 30 31 32 33 34 34 35 35 35 35
16 19 20 20 19 18 17 16 15 14 14 14 15 16 18 20 22 24 25 26 25 25 24 24 24 23 23 21 20 19 20 21 22 22 23 24 25 25 25 25 25 26 26 27 27 27 28 28 28 28 29 29 29 29 29 29 29 29 30 31 31 31 32 33 33 33 33 33 32
14 17 20 22 22 21 19 18 16 14 12 13 13 14 16 18 21 22 24 26 26 26 26 25 25 24 23 22 21 21 21 22 22 23 24 25 26 26 26 26 26 26 27 27 26 26 26 26 27 27 27 28 29 29 30 30 30 30 30 31 31 31 31 31 31 31 30 29 29
Wind_Direction
224 223 221 218 219 222 225 227 226 221 215 208 203 201 201 200 196 192 189 185 181 179 177 175 174 174 174 174 175 176 177 180 182 183 182 181 183 186 189 190 192 193 194 194 194 194 196 200 203 205 204 203 204 206 209 210 211 212 214 215 217 220 224 227 229 230 231 230 231
223 222 219 217 218 221 223 223 220 214 206 199 194 191 190 189 187 184 181 179 177 176 176 175 174 174 174 175 176 176 176 178 181 183 183 180 182 185 189 191 194 196 198 199 200 200 202 205 208 211 211 209 208 210 212 214 216 217 219 219 220 222 224 227 230 232 232 232 233
223 220 218 216 218 221 221 220 214 207 199 191 186 182 181 181 179 178 176 175 175 175 175 175 174 174 174 176 177 178 178 180 182 184 185 184 183 185 188 191 194 197 199 201 203 204 206 208 211 214 216 216 215 215 215 216 218 221 223 224 224 225 226 228 230 232 233 233 234
222 219 216 216 219 221 220 218 212 203 194 187 181 177 175 175 174 174 173 172 172 173 174 174 174 174 175 177 179 180 182 183 185 187 188 189 189 189 189 191 194 196 197 199 202 205 207 209 211 214 217 219 219 218 216 215 218 222 225 226 227 228 229 230 231 233 234 234 235
221 218 216 217 220 220 220 218 210 201 192 184 178 174 172 172 172 172 172 170 171 172 174 174 173 174 176 178 180 182 184 185 187 189 190 192 194 193 192 192 194 196 195 196 199 202 205 207 210 212 215 218 219 219 218 218 221 224 227 228 230 231 232 232 233 234 235 236 237
220 217 216 218 220 220 219 216 209 199 190 183 178 174 172 171 171 172 173 173 173 173 174 173 173 175 177 179 181 183 186 186 187 189 192 194 195 194 194 194 197 200 202 203 202 201 201 204 207 209 211 214 217 220 222 225 227 229 230 232 233 234 235 235 236 236 237 238 239
219 217 217 219 220 220 218 214 207 198 190 183 178 174 172 170 171 173 175 176 176 176 175 173 174 175 178 180 183 186 188 188 188 189 192 193 192 192 193 195 198 202 206 210 208 203 199 200 203 205 207 211 215 220 224 227 230 232 233 236 238 239 239 239 239 239 239 239 240
217 217 219 223 222 220 217 212 205 197 190 184 179 175 173 171 171 174 178 180 180 179 178 177 176 177 179 182 185 188 190 191 191 191 192 192 190 189 192 196 199 202 206 210 210 205 199 198 201 204 207 211 215 219 223 227 230 233 236 240 243 244 243 241 240 240 240 240 240
216 218 224 229 226 221 216 211 205 198 192 186 181 177 175 172 172 176 181 183 184 183 182 181 180 180 181 183 186 188 190 193 194 193 192 192 189 189 192 195 199 202 206 210 210 205 201 199 201 204 208 213 217 221 224 227 231 234 239 244 246 245 242 239 239 239 239 239 239
217 223 230 232 227 220 213 208 204 199 194 188 183 179 177 175 175 179 183 186 187 186 185 184 184 183 184 186 188 190 192 195 195 194 192 191 190 191 193 197 199 202 205 208 210 208 206 204 204 207 211 216 220 223 225 228 231 236 241 244 243 240 237 236 236 237 238 239 239
223 231 235 233 225 216 209 203 200 198 195 191 186 181 178 178 180 183 186 187 188 188 187 187 186 185 186 188 190 192 195 198 200 200 197 193 191 192 196 199 201 202 204 207 211 213 213 211 209 210 213 217 221 224 227 229 232 236 240 240 238 235 234 233 234 236 237 238 239
231 236 236 231 221 212 204 199 196 195 194 192 188 184 181 181 184 186 187 188 189 189 189 188 187 187 188 190 193 195 197 201 205 206 203 197 195 196 198 199 201 202 204 206 209 212 214 214 213 213 215 218 221 224 227 229 232 235 237 236 235 234 234 234 235 236 237 238 240
232 234 231 224 216 208 201 196 193 193 193 192 190 186 184 185 187 188 188 189 190 190 190 189 189 189 190 193 195 197 199 203 206 207 205 202 202 202 200 196 197 199 202 205 207 209 211 213 214 215 216 218 220 223 226 229 232 234 235 235 235 236 237 237 237 238 239 241 244
227 227 224 218 212 206 202 197 193 192 192 192 190 187 186 187 188 189 189 189 190 190 191 191 191 192 194 195 197 198 200 203 205 207 207 207 208 206 200 193 192 194 198 201 204 206 208 210 213 214 215 216 219 222 225 228 231 233 235 236 237 238 239 240 240 241 243 245 248
224 223 220 217 213 209 206 202 197 194 192 191 190 188 187 188 188 188 187 187 189 190 191 192 193 195 196 198 199 201 202 204 204 204 204 205 205 201 195 191 191 192 194 197 200 202 204 207 209 211 212 215 218 222 225 229 232 235 237 238 240 241 242 243 244 245 247 250 253
223 222 222 221 218 214 209 205 201 197 193 191 190 189 189 188 188 187 186 186 187 189 191 192 194 195 197 200 201 203 203 202 198 195 193 193 192 189 186 185 186 188 191 193 194 196 198 201 204 208 212 216 221 225 228 232 235 238 240 242 244 245 246 247 248 249 251 253 255
223 223 222 222 218 213 208 204 201 198 196 194 192 190 190 190 189 188 187 187 188 189 191 193 194 196 197 200 202 202 199 193 189 186 184 182 180 179 179 179 180 184 187 189 189 189 191 195 201 208 215 221 226 230 233 236 238 241 243 245 247 248 249 250 250 251 252 253 254
219 219 218 218 214 209 205 201 198 197 198 197 196 193 192 192 192 192 190 190 190 190 191 193 194 195 196 198 200 196 189 182 182 182 180 178 177 178 180 180 182 186 190 192 190 188 189 195 204 213 220 226 230 234 236 238 241 244 246 248 250 250 251 251 251 252 252 252 253
216 215 214 213 211 208 204 199 196 196 198 200 198 195 194 194 195 194 192 189 189 189 190 191 192 193 193 194 194 189 182 177 178 179 179 177 177 181 185 188 190 194 197 198 196 196 198 204 211 219 225 229 233 236 238 240 243 246 249 251 252 253 253 253 252 252 252 253 253
217 217 216 215 212 208 203 198 195 194 196 198 198 196 194 194 195 194 190 187 186 186 186 187 188 188 189 190 190 188 183 177 175 177 178 177 179 184 191 195 198 201 203 203 203 205 208 213 219 224 228 232 234 237 239 242 245 248 251 253 254 255 255 255 254 254 254 255 255
223 224 223 219 213 206 200 196 192 190 190 192 194 194 193 192 192 192 189 186 185 184 183 183 183 185 188 190 193 193 189 181 175 175 178 179 183 189 195 198 200 203 205 207 208 211 215 219 223 227 231 233 236 238 241 244 247 249 252 254 256 257 257 257 257 257 257 258 259
223 224 221 216 208 201 195 191 188 186 184 185 187 188 188 188 189 189 189 187 185 183 182 181 182 186 191 195 199 199 196 188 179 178 181 185 190 195 198 198 200 203 207 210 213 215 218 222 225 229 232 235 237 240 242 245 248 250 253 255 257 259 260 260 260 260 261 262 263
217 215 211 206 200 195 191 188 185 182 180 179 179 180 180 182 184 187 188 187 185 183 181 180 182 187 193 198 202 204 201 192 184 182 186 190 194 196 197 197 199 204 210 214 216 219 221 224 227 230 233 236 238 240 242 245 248 251 254 257 259 260 261 261 262 263 264 265 266
209 205 200 195 193 191 189 187 185 182 179 178 177 176 176 176 179 183 185 184 184 183 183 182 182 185 190 196 201 204 202 195 188 186 188 191 193 194 195 197 201 206 213 219 222 224 226 227 229 232 234 236 238 240 243 246 249 252 255 258 260 261 261 262 262 263 265 266 268
204 198 194 190 191 191 191 190 188 185 182 180 178 177 175 174 176 178 180 180 181 183 186 186 185 184 186 190 195 200 201 199 196 193 193 194 195 196 197 199 204 211 219 227 231 232 232 232 233 234 236 237 239 241 244 248 251 255 257 259 260 260 261 261 262 264 265 267 268
203 198 193 191 192 193 193 192 191 188 185 183 181 178 175 173 172 172 173 174 176 180 184 187 187 186 185 186 190 196 201 204 204 203 202 202 202 202 203 204 209 217 227 234 238 239 238 237 237 237 238 240 242 245 248 251 254 257 258 259 260 260 261 262 263 265 266 267 268
205 199 195 193 193 193 193 193 192 190 187 185 182 179 176 172 168 166 165 167 168 171 175 180 184 185 186 187 190 195 200 204 205 206 205 205 206 206 207 209 215 223 232 238 241 241 241 240 240 240 242 244 246 249 252 255 257 258 259 259 260 261 261 263 264 265 266 266 268
206 200 195 191 190 190 191 191 190 188 186 184 182 181 180 178 176 172 169 166 164 164 166 169 173 177 181 185 190 195 199 201 201 202 203 204 205 206 209 213 220 227 234 238 240 241 242 243 244 245 246 248 250 252 254 256 256 257 257 257 258 259 261 262 262 263 264 264 266
206 200 194 190 187 187 187 187 185 183 182 181 181 182 184 187 188 186 181 174 169 165 164 164 166 171 177 182 188 193 196 198 199 201 202 203 205 208 211 216 222 228 233 236 239 241 244 245 247 248 249 250 252 253 255 255 254 253 253 254 256 258 259 260 261 262 263 264 265
207 199 194 189 187 185 184 182 180 178 177 177 177 179 181 182 184 184 181 176 171 167 165 165 168 175 181 185 189 192 195 198 200 202 204 206 208 211 214 219 223 229 233 236 239 242 244 246 247 249 250 251 253 254 255 253 251 250 251 253 255 256 258 259 261 262 263 264 264
208 201 195 190 187 184 181 178 175 173 172 172 173 173 173 173 173 175 175 173 170 168 168 170 176 182 186 190 193 196 198 201 203 205 207 210 212 215 218 221 224 229 233 237 240 242 244 246 247 249 250 252 254 255 254 252 249 248 249 251 253 255 257 258 260 261 262 263 263
210 203 197 192 188 185 182 177 173 171 170 170 169 168 166 166 168 170 171 171 171 171 173 178 183 187 191 195 198 201 204 206 208 210 213 216 218 221 223 223 225 228 232 236 239 241 243 245 247 249 251 253 254 254 253 251 250 250 250 252 253 254 256 257 259 260 261 261 262
211 205 199 195 192 188 184 179 175 172 171 170 169 167 166 167 170 172 173 173 174 175 178 182 186 192 197 201 205 208 210 212 213 214 216 218 220 223 226 228 228 230 233 236 239 241 243 245 247 250 252 254 255 255 253 252 251 251 252 252 253 254 255 256 257 258 259 260 261
207 202 199 197 195 193 189 185 181 178 176 174 173 171 171 172 175 177 178 178 178 179 180 184 189 196 202 206 209 210 211 213 214 215 216 217 219 221 224 227 229 232 234 237 239 242 244 246 249 251 253 255 255 254 253 251 251 251 251 252 253 254 255 255 255 256 257 259 260
198 192 191 194 196 197 195 192 189 187 185 183 182 180 178 178 179 180 181 182 182 183 185 190 196 203 208 210 210 210 211 213 215 217 218 219 221 222 224 226 228 231 234 236 239 242 245 248 250 252 254 254 254 253 252 251 251 252 252 252 253 253 253 253 254 256 258 259 260
195 188 183 184 190 195 198 198 197 196 196 195 194 191 188 186 184 183 183 183 184 188 193 201 207 212 216 218 217 217 217 218 220 222 222 223 224 225 226 227 228 230 233 236 239 242 245 248 250 252 253 253 252 251 252 252 253 253 253 253 252 252 253 254 256 258 260 262 262
194 189 184 182 184 189 194 198 200 202 203 204 204 203 200 196 192 188 186 185 187 192 202 211 215 218 221 224 225 226 227 228 229 229 228 227 227 227 228 228 229 231 233 236 239 242 245 247 249 250 251 250 250 251 252 254 254 254 253 253 253 255 256 258 260 262 263 263 263
193 191 189 188 188 190 192 196 200 203 206 208 210 211 210 206 201 196 193 190 191 197 207 215 218 221 223 226 228 230 231 232 232 230 229 228 227 227 227 227 228 231 233 236 239 241 244 245 246 248 249 249 250 251 252 253 254 254 255 256 257 259 261 262 262 262 262 261 261
194 192 191 192 194 197 199 202 204 206 208 210 212 214 215 214 211 207 203 200 199 203 211 216 220 223 226 228 229 229 229 228 227 227 226 227 228 228 228 228 229 231 233 235 237 240 241 243 244 246 247 248 250 251 252 252 253 255 257 258 260 261 262 262 261 260 259 259 258
196 195 194 194 196 199 203 207 211 213 214 215 216 218 218 216 214 212 210 208 208 210 213 217 220 223 226 228 226 225 225 225 225 225 226 227 230 231 231 231 232 232 234 235 236 238 240 241 243 245 246 248 249 250 251 252 253 255 257 258 259 259 260 260 259 258 257 257 257
201 199 198 197 198 200 203 207 212 219 223 223 221 218 215 213 209 207 207 208 209 211 214 216 218 221 223 224 224 225 226 227 227 226 226 227 229 230 231 232 232 233 234 235 237 238 239 241 243 244 246 247 249 250 252 253 255 257 258 258 258 257 256 256 257 256 256 256 257